SL-14 DEB, 45326

Orbit data source: Space-Track

SL-14 DEB, 45326 is space debris in LEO originally from a launch on Thu, 15 Aug 1991 UTC launched from the Plesetsk Missile And Space Complex (PKMTR). Debris objects in space refer to the collection of defunct objects orbiting the Earth. Examples of debris include non-operational satellites, rocket bodies, and fragments generated from explosions, collisions, or faulty payload assembly.

Loading next visibility...
Identifier
45326, 1991-056BQ
Orbit
LEO
Country
Flag of CISCIS
Related business
Manufacturer
Unknown
Mission
Spacecraft
Bus & Motor
Unknown
Mass
Unknown
Launch date (UTC)
1991-08-15 (35 years ago)
Launch vehicle
Unknown
Launch site
Plesetsk Missile And Space Complex (PKMTR)
Object type
Payload
Rocket body
Debris
Shape & HBR
Unknown shape, 0.1 m
Radar Cross Section
Medium (>0.1 m² and <1 m²)

Expand to show TLE details & history
Last TLE update: 2 days ago

TLE from 2 days ago
0 SL-14 DEB
1 45326U 91056BQ  26171.27222839  .00000536  00000-0  12011-2 0  9994
2 45326  82.5900 126.9271 0040281  21.4770 338.8035 13.25154031306600
Epoch: 2026-06-20T06:32Z
TLE epoch observation values (Epoch: 2026-06-20T06:32:00.532Z)
Latitude
-0.00012°
Longitude
120.43563°
Altitude
1,139.599 km
Speed
7.297 km/s
True Right ascension
08h 27m 42s
True Declination
0° 00' 00"
Sunlit
Object was in daylight at epoch
Visualization orbit readout
Latitude
Unknown
Longitude
Unknown
Altitude
Unknown
Speed
Unknown
Apparent Right ascension
Unknown
Apparent Declination
Unknown
Sunlit
N/A
Visualization observer readout
Local Sidereal Time
21:46:01
Azimuth
Unknown
Elevation
Unknown
Doppler factor
Unknown
Orbital elements
Apogee altitude
1,192.703 km
Perigee altitude
1,131.955 km
Semi-major axis
7,540.466 km
Eccentricity
0.00403
Inclination
82.59°
RAAN
126.9271°
Arg. of periapsis
21.477°
True anomaly
338.63582°
Mean anomaly
338.8035°
Eccentric anomaly
338.71974°
Mean motion
3.31471 °/min
Orbital period
108.61 mins
BSTAR
0.0012011
Loading maneuver chart data...
Computing Atmospheric mass density...
Loading historical data...
Loading historical data...
Loading historical data...
Loading historical data...
Loading historical data...
Loading historical data...
Loading historical data...

Documentation

Showing up to 5 results
|